Location: Limerick
(52.6800°N, 8.6400°W)
Time: 17:24:55
(UTC+01:00)

Sapphire - Visible Passes

Search period start: 16 April 2014 00:00
Search period end: 26 April 2014 00:00
Orbit: 788 x 795 km, 67.1° (Epoch: 15 April)

Date Brightness Start Highest point End Pass type
(mag) Time Alt. Az. Time Alt. Az. Time Alt. Az.
16 Apr ? 02:29:27 37° ESE 02:29:27 37° ESE 02:34:19 10° NE visible
16 Apr ? 04:10:11 30° WSW 04:12:40 53° NW 04:18:01 10° NE visible
16 Apr ? 05:53:08 10° WNW 05:57:18 22° NNW 06:01:29 10° NNE visible
17 Apr ? 01:59:39 29° E 01:59:39 29° E 02:03:43 10° NE visible
17 Apr ? 03:40:23 41° WSW 03:42:11 65° NW 03:47:37 10° NE visible
17 Apr ? 05:22:16 10° WNW 05:26:38 24° NNW 05:31:01 10° NNE visible
18 Apr ? 01:29:49 22° E 01:29:49 22° E 01:33:01 10° ENE visible
18 Apr ? 03:10:33 55° SW 03:11:45 80° NW 03:17:13 10° NE visible
18 Apr ? 04:51:25 10° W 04:55:59 27° NNW 05:00:35 10° NNE visible
19 Apr ? 00:59:58 16° E 00:59:58 16° E 01:02:10 10° ENE visible
19 Apr ? 02:40:41 70° SSW 02:41:20 84° SE 02:46:47 10° NE visible
19 Apr ? 04:21:24 14° W 04:25:22 30° NNW 04:30:10 10° NNE visible
20 Apr ? 00:30:03 12° E 00:30:03 12° E 00:31:00 10° ENE visible
20 Apr ? 02:10:47 66° SE 02:10:57 67° ESE 02:16:21 10° NE visible
20 Apr ? 03:51:30 19° W 03:54:47 35° NW 03:59:46 10° NNE visible
20 Apr ? 05:36:00 10° NW 05:39:47 19° N 05:43:34 10° NE visible
21 Apr ? 01:40:50 52° ESE 01:40:50 52° ESE 01:45:52 10° NE visible
21 Apr ? 03:21:33 25° W 03:24:13 41° NW 03:29:22 10° NNE visible
21 Apr ? 05:05:09 10° WNW 05:09:05 20° NNW 05:13:00 10° NNE visible
22 Apr ? 01:10:50 40° E 01:10:50 40° E 01:15:21 10° NE visible
22 Apr ? 02:51:33 32° W 02:53:41 49° NW 02:58:59 10° NE visible
22 Apr ? 04:34:17 10° WNW 04:38:23 21° NNW 04:42:29 10° NNE visible
23 Apr ? 00:40:48 31° E 00:40:48 31° E 00:44:46 10° NE visible
23 Apr ? 02:21:31 41° WSW 02:23:11 60° NW 02:28:35 10° NE visible
23 Apr ? 04:03:24 10° WNW 04:07:42 23° NNW 04:12:01 10° NNE visible
24 Apr ? 00:10:42 24° E 00:10:42 24° E 00:14:07 10° ENE visible
24 Apr ? 01:51:25 52° WSW 01:52:44 74° NW 01:58:11 10° NE visible
24 Apr ? 03:32:32 10° W 03:37:02 26° NNW 03:41:34 10° NNE visible
24 Apr ? 05:18:41 10° NW 05:22:19 18° N 05:25:58 10° NE visible
24 Apr ? 23:40:32 18° E 23:40:32 18° E 23:43:19 10° ENE visible
25 Apr ? 01:21:14 60° SW 01:22:18 89° SE 01:27:46 10° NE visible
25 Apr ? 03:01:56 11° W 03:06:25 29° NNW 03:11:08 10° NNE visible
25 Apr ? 04:47:56 10° NW 04:51:35 18° N 04:55:15 10° NE visible
25 Apr ? 23:10:17 14° E 23:10:17 14° E 23:12:17 10° ENE visible
